Regional Weather Roundup
Issued by NWS

Home | Current Version | Previous Version | Text Only | Print | Product List | Glossary Off
Versions: 1 2 3 4 5 6 7 8 9 10 11 12 13 14 15 16 17 18 19 20 21 22 23 24 25 26 27 28 29 30 31 32 33 34 35 36 37 38 39 40 41 42 43 44 45 46 47 48 49 50

957
ASUS45 KPSR 212110
RWRAZ

ARIZONA HOURLY REGIONAL WEATHER ROUNDUP
NATIONAL WEATHER SERVICE PHOENIX AZ
200 PM MST SAT APR 21 2018

NOTE: FAIR INDICATES FEW OR NO CLOUDS BELOW 12,000 FEET WITH NO
SIGNIFICANT WEATHER AND/OR OBSTRUCTIONS TO VISIBILITY.

AZZ001>003-036-212200-
NORTHWEST ARIZONA

CITY           SKY/WX    TMP DP  RH WIND       PRES   REMARKS
BULLHEAD CITY  SUNNY     90  21   8 NE6       29.97F
KINGMAN        SUNNY     80  23  12 NW10      30.09F
$$

AZZ004>008-015-016-018-212200-
NORTH CENTRAL ARIZONA

CITY           SKY/WX    TMP DP  RH WIND       PRES   REMARKS
GRAND CANYON   SUNNY     64  27  24 VRB5      30.22S
WILLIAMS       SUNNY     64  18  16 VRB3G16   30.19F
PRESCOTT       SUNNY     72  17  12 N12G18    30.14F
FLAGSTAFF      SUNNY     64  23  21 NE6       30.20F
PAYSON         SUNNY     72  23  16 VRB6G16   30.12F
PAGE           SUNNY     71  27  19 VRB3      30.11F
$$

AZZ009>014-017-212200-
NORTHEAST ARIZONA

CITY           SKY/WX    TMP DP  RH WIND       PRES   REMARKS
WINSLOW        SUNNY     71  30  21 N9        30.14F
SAINT JOHNS    SUNNY     64  30  27 N12G24    30.15F
WINDOW ROCK    PTSUNNY   65  28  24 NW15G22   30.16S
SHOW LOW       SUNNY     63  27  25 N15       30.21F
$$

AZZ540-542>544-546-548-212200-
GREATER PHOENIX AREA

CITY           SKY/WX    TMP DP  RH WIND       PRES   REMARKS
PHOENIX        MOSUNNY   83  29  14 VRB3      29.96F
BUCKEYE        SUNNY     84  32  15 S5        29.98F
GLENDALE       MOSUNNY   84  30  14 CALM      29.98F
LUKE AFB       SUNNY     85  30  14 S3        29.95F
DEER VALLEY    SUNNY     82  28  14 VRB3      29.98F
SCOTTSDALE     SUNNY     84  33  16 VRB6      29.99F
MESA-FALCON    SUNNY     82  32  16 VRB5      29.99F
MESA-GATEWAY   MOSUNNY   82  30  15 CALM      30.00F
CHANDLER       SUNNY     84  28  13 NW5       29.98F
$$

AZZ539-553-212200-
SOUTHWEST MARICOPA COUNTY AND PINAL COUNTY

CITY           SKY/WX    TMP DP  RH WIND       PRES   REMARKS
CASA GRANDE    SUNNY     82  29  14 N8        29.98F
GILA BEND      FAIR      86  25  10 N5        29.95F
$$

AZZ503-504-507>509-212200-
SOUTHEAST ARIZONA

CITY           SKY/WX    TMP DP  RH WIND       PRES   REMARKS
TUCSON         PTSUNNY   80  26  13 NW8       30.02F
DAVIS-MONTHAN  PTSUNNY   83  27  13 W6        30.00F
RYAN FIELD     SUNNY     81  27  13 W6        30.02F
NOGALES        CLOUDY    79  20  11 N9        30.05F
SIERRA VISTA   PTSUNNY   73  17  11 NW5       30.11
DOUGLAS        SUNNY     77  18  11 N7        30.07F
SAFFORD        SUNNY     78  23  13 VRB3      30.02F
$$

AZZ532-212200-
SOUTHWEST ARIZONA

CITY           SKY/WX    TMP DP  RH WIND       PRES   REMARKS
YUMA           MOSUNNY   89  29  11 CALM      29.96F
$$

CAZ041-043-047-048-061-525>527-560>570-212200-
SOUTHERN CALIFORNIA

CITY           SKY/WX    TMP DP  RH WIND       PRES   REMARKS
DOWNTOWN L.A.  SUNNY     77  50  38 W5        30.00F
L.A. AIRPORT   MOSUNNY   70  51  51 W15       30.02F
SAN DIEGO      PTSUNNY   70  53  54 W14       30.02F
BURBANK        SUNNY     88  37  16 SE5       29.99F
ONTARIO        PTSUNNY   87  30  13 SW8       29.99F
RIVERSIDE      SUNNY     89  25  10 VRB7      29.98F
PALM SPRINGS   MOSUNNY   93  20   7 VRB6      29.96F
EL CENTRO NAS  PTSUNNY   90  30  11 E6        29.96F
IMPERIAL       SUNNY     90  29  11 VRB5      29.94F
BLYTHE         SUNNY     89  29  11 MISG      29.96F
NEEDLES        SUNNY     90  22   8 VRB5      29.98F
$$

NVZ020-UTZ003-212200-
SOUTHERN NEVADA-UTAH

CITY           SKY/WX    TMP DP  RH WIND       PRES   REMARKS
LAS VEGAS      SUNNY     81  26  13 CALM      30.06F
SALT LAKE CITY MOSUNNY   66  31  27 VRB6      30.17F
$$

NMZ009-TXZ055-212200-
NEW MEXICO-WEST TEXAS

CITY           SKY/WX    TMP DP  RH WIND       PRES   REMARKS
ALBUQUERQUE    MOSUNNY   61  29  29 VRB5      30.10F
EL PASO        MOSUNNY   74  24  15 NW7G22    30.05F
$$


........................KEY........................
SKY/WX - SKY CONDITION/WEATHER
TMP    - TEMPERATURE IN FAHRENHEIT
DP     - DEW POINT IN FAHRENHEIT
RH     - RELATIVE HUMIDITY IN PERCENT
WIND   - DIRECTION AND SPEED IN MILES PER HOUR (MPH)
VRB    - VARIABLE WIND DIRECTION
PRES   - MEAN SEA LEVEL PRESSURE IN INCHES OF MERCURY
         F - FALLING PRESSURE   R - RISING PRESSURE
         S - STEADY PRESSURE
VSB    - VISIBILITY IN MILES
HX     - HEAT INDEX IN FAHRENHEIT
WCI    - WIND CHILL INDEX IN FAHRENHEIT
TC     - TEMPERATURE IN CELSIUS WHICH IS ALSO KNOWN AS
         TEMPERATURE IN CENTIGRADE
AFB    - AIR FORCE BASE
         LUKE AFB IS LUKE AIR FORCE BASE
         DAVIS-MONTHAN IS DAVIS-MONTHAN AIR FORCE BASE
NAS    - NAVAL AIR STATION
         EL CENTRO NAS IS EL CENTRO NAVAL AIR STATION
N/A    - NOT AVAILABLE





USA.gov is the U.S. government's official web portal to all federal, state and local government web resources and services.